GFSGL_sfc_30mbdewp_000.txt.gz
Dewpoint
63 62 61 62 61 61 60 60 59 60 61 62 62 62 61 60 61 61 61 61 60 60 61 60 59 60 57 57 57 56 54 55 53 52 53 53 53 53 54 58 61 64 67
65 63 63 63 63 61 61 60 60 61 61 59 59 59 59 60 61 61 60 60 60 59 59 59 58 59 57 57 56 55 55 55 55 53 54 54 53 53 55 56 58 61 65
66 65 63 62 62 61 61 60 60 60 58 59 58 56 57 59 59 60 60 60 60 59 59 59 58 58 57 57 56 56 56 56 55 55 54 54 54 53 54 55 57 59 63
66 65 62 58 57 59 60 60 60 60 59 58 58 58 60 59 59 59 60 61 60 59 58 58 59 58 57 57 56 56 56 55 55 55 54 54 53 53 54 54 55 56 58
65 64 61 59 58 58 59 59 60 60 60 59 59 60 60 59 59 60 61 59 58 58 59 59 59 59 59 58 57 57 56 55 55 55 53 53 52 51 52 53 54 55 56
64 63 62 61 59 59 59 60 60 60 60 59 59 59 58 57 59 58 55 55 55 55 54 55 57 58 59 59 59 58 58 56 55 55 53 53 52 53 53 54 54 54 53
63 63 62 61 61 60 60 60 60 60 59 59 59 58 56 58 58 57 57 56 53 53 54 56 56 57 58 58 58 58 57 57 57 56 54 53 54 54 54 54 54 54 53
62 62 62 62 61 61 61 60 60 61 61 60 59 58 59 57 59 59 58 55 54 55 56 56 54 55 57 57 56 53 53 54 54 54 54 54 55 54 54 55 55 55 55
62 61 62 62 61 61 60 60 60 61 61 60 59 55 60 59 59 59 57 55 54 54 52 55 56 54 56 53 52 52 52 53 55 55 54 55 55 55 55 56 55 54 53
61 61 61 61 60 60 60 60 61 62 62 62 59 61 59 59 58 56 56 55 53 52 55 54 54 54 52 52 51 52 52 53 53 53 54 54 55 54 55 56 56 53 54
61 60 59 61 60 60 60 62 62 62 61 59 58 58 59 59 57 57 55 54 54 54 51 50 53 51 50 51 51 51 51 52 52 53 53 53 54 54 54 56 57 57 55
61 61 59 56 62 63 62 63 62 60 59 57 55 56 58 56 55 56 56 55 54 50 50 52 51 50 50 50 50 50 51 51 52 52 52 52 53 53 53 55 57 58 57
59 60 56 55 57 58 64 62 60 57 56 55 57 57 55 55 53 52 51 50 50 48 50 48 50 49 50 49 50 49 51 51 51 49 49 50 52 53 53 55 56 57 59
57 58 56 54 54 58 61 60 57 57 57 57 56 54 54 50 49 49 49 49 49 47 46 46 49 49 49 48 47 48 48 49 49 49 49 50 52 52 52 54 54 55 58
55 56 58 57 59 60 57 56 56 52 53 53 52 53 53 50 48 47 47 46 46 45 46 50 50 47 45 44 44 44 45 45 45 47 49 48 49 50 51 53 54 54 53
53 52 55 57 59 56 54 50 46 45 45 49 49 47 46 46 44 44 43 43 43 43 46 45 44 44 43 41 39 39 40 41 41 44 47 48 48 48 50 52 52 53 53
54 57 57 58 58 53 51 52 50 48 46 45 46 45 44 44 44 44 44 44 45 44 42 40 39 37 37 36 36 35 35 37 39 41 44 43 46 48 48 49 50 51 51
58 57 54 55 57 53 51 50 49 48 48 46 46 45 44 45 44 44 44 42 40 38 37 35 32 30 30 30 31 32 33 34 36 37 37 37 39 47 46 47 48 48 49
57 55 55 56 57 55 55 55 52 51 50 48 47 48 47 47 44 43 42 40 38 35 33 31 31 31 31 31 31 32 32 34 34 34 35 35 35 40 44 44 46 46 48
52 53 54 55 55 54 52 52 53 52 51 48 47 46 44 46 44 42 41 40 39 37 36 35 35 34 34 34 27 25 30 32 32 32 33 33 34 34 36 40 42 44 45
54 51 52 53 53 52 51 51 50 49 48 47 46 44 43 43 42 41 40 39 39 39 38 36 30 33 27 21 20 25 29 30 30 30 31 32 33 32 32 33 36 40 43
51 50 53 52 52 52 51 50 49 49 48 46 43 43 42 42 41 41 40 39 39 39 34 29 27 23 20 19 24 26 26 27 27 28 29 31 31 31 31 30 30 33 37
52 53 53 52 51 50 50 50 50 49 46 45 43 42 41 41 41 41 40 40 38 33 29 27 23 22 22 22 24 23 23 24 25 27 28 30 29 28 30 29 30 30 32
50 49 49 49 49 48 48 47 45 47 47 45 44 42 42 41 40 39 39 37 32 31 28 26 23 20 18 17 18 18 20 23 25 27 28 28 27 27 27 28 29 29 30
46 46 46 46 47 46 46 46 44 42 41 42 44 43 42 41 40 38 38 30 27 29 27 25 23 19 16 15 15 15 18 22 25 28 29 25 25 25 26 27 27 28 28
40 39 43 46 46 46 45 44 44 43 42 40 40 42 43 42 39 37 34 27 26 27 27 26 24 21 19 19 18 17 17 20 26 29 29 24 23 24 24 25 26 26 27

GFSGL_sfc_30mbdewp_003.txt.gz
Dewpoint
63 60 59 59 60 61 60 59 58 59 58 58 58 59 60 60 59 59 60 61 60 59 60 60 60 60 58 57 57 56 54 53 52 52 53 54 54 54 55 55 55 56 58
63 61 60 60 61 61 60 59 58 58 58 59 60 60 59 58 58 60 59 59 59 59 59 59 59 60 59 57 56 56 55 54 53 52 53 54 54 55 55 54 54 55 56
64 63 62 61 62 60 60 59 59 59 58 58 57 56 54 54 56 58 59 59 58 59 59 59 58 58 57 57 56 56 56 56 55 55 54 55 55 55 54 54 54 54 55
65 64 62 62 63 62 61 60 59 59 58 57 56 55 55 56 57 57 57 58 59 60 60 59 58 58 57 57 57 56 56 55 55 54 55 54 54 53 53 52 51 53 53
66 65 63 63 62 62 62 60 60 59 58 57 56 56 56 57 58 57 57 59 59 57 57 57 58 59 60 59 57 56 56 55 55 54 54 53 53 51 50 51 52 52 52
67 66 64 62 60 60 60 59 59 58 58 57 57 57 57 57 57 57 58 56 55 55 53 53 54 56 56 57 58 60 59 56 55 54 54 53 53 51 52 52 52 52 50
67 66 64 63 61 58 58 59 58 58 58 57 57 57 57 56 56 56 56 54 53 53 52 53 54 56 56 56 56 57 57 57 58 56 54 53 52 52 53 53 52 52 52
66 65 64 63 62 59 59 58 58 59 58 58 58 57 57 57 57 57 57 58 56 53 54 55 52 52 54 55 56 53 52 52 53 53 54 54 54 54 53 54 53 53 54
65 64 65 64 61 61 59 59 59 59 59 59 58 58 58 56 58 58 58 57 55 54 52 52 54 52 53 54 52 51 50 51 54 54 55 55 55 55 55 55 52 52 51
64 64 64 63 62 61 60 59 60 60 59 59 59 58 57 56 59 58 56 55 53 52 53 53 51 52 53 52 50 50 50 50 51 52 52 53 54 54 55 55 54 51 51
64 63 63 61 61 61 61 59 59 61 62 61 60 60 60 59 57 57 55 54 52 53 52 49 50 52 51 50 50 49 49 50 50 52 51 51 52 53 54 54 54 53 52
63 62 59 60 60 60 57 56 57 59 60 60 59 58 57 58 57 56 55 55 55 52 49 50 50 50 50 50 50 49 49 49 50 50 49 49 50 51 52 53 54 55 57
62 60 59 60 59 57 56 54 53 56 60 58 57 56 56 56 54 54 52 51 49 48 49 48 47 48 50 49 49 48 47 47 48 47 48 49 50 51 52 53 53 54 56
59 58 58 58 58 59 57 57 59 60 58 56 56 56 55 53 50 49 49 48 48 47 45 46 47 49 49 47 45 44 44 45 45 44 46 49 50 50 50 52 52 52 54
59 60 58 58 56 57 57 56 58 55 55 57 55 54 53 50 48 47 47 46 45 44 44 49 49 47 45 43 40 39 40 41 40 41 43 45 47 48 49 50 51 51 52
56 54 53 54 56 58 55 50 46 46 47 50 51 52 48 47 44 43 43 43 42 42 46 46 45 42 40 38 36 35 35 36 37 39 40 43 43 44 47 48 49 50 50
55 56 56 55 56 56 54 52 50 46 45 44 44 44 43 43 44 43 44 43 43 44 43 41 39 36 35 34 33 32 32 33 35 36 36 37 38 40 46 46 47 48 48
54 55 55 56 57 55 54 52 50 47 46 45 44 44 44 44 43 44 42 41 40 39 38 36 31 28 28 28 30 31 31 32 33 33 33 34 35 37 41 43 45 46 47
56 55 55 56 56 54 52 51 50 48 47 46 46 46 45 46 43 42 42 41 39 36 33 31 30 31 31 31 28 26 31 32 32 31 32 33 33 34 35 39 41 44 46
55 55 55 56 55 53 52 53 51 49 49 47 47 47 46 45 44 42 40 39 37 36 35 35 35 34 34 27 20 22 29 30 29 30 30 31 32 32 32 33 36 40 44
52 53 55 55 55 54 53 53 53 52 50 48 47 46 44 43 44 42 40 39 39 38 37 33 32 30 21 17 23 26 28 27 28 28 29 30 31 30 31 31 31 34 38
51 52 52 52 53 53 52 52 51 50 49 47 45 42 42 42 42 41 40 39 38 39 35 28 24 20 18 20 25 25 26 25 26 27 28 29 29 29 30 30 30 31 32
52 51 52 51 52 52 51 50 49 49 48 47 44 42 41 41 41 41 41 40 40 36 29 26 22 21 21 22 23 23 23 24 25 26 27 28 27 28 28 28 29 29 30
51 51 51 50 50 49 49 49 50 49 47 46 44 42 41 40 40 41 41 40 38 32 29 25 22 19 17 18 18 18 19 22 26 27 28 26 26 27 27 27 28 28 29
47 46 47 48 48 47 46 45 43 44 47 46 44 43 42 40 40 39 40 35 32 30 28 25 21 17 13 12 13 14 16 24 27 29 27 24 25 25 26 26 27 27 27
41 42 43 45 46 45 44 44 43 42 42 42 44 44 43 41 40 39 38 30 28 29 27 25 23 18 16 16 15 17 18 24 28 29 26 24 23 24 25 25 25 25 25

GFSGL_sfc_30mbdewp_006.txt.gz
Dewpoint
68 66 64 62 59 59 58 60 59 56 57 59 59 58 59 59 60 59 59 59 60 60 60 60 60 61 61 59 58 57 55 55 53 54 53 55 55 56 56 57 56 56 55
68 65 62 60 59 59 59 60 60 58 58 59 59 59 60 61 60 59 58 60 60 59 59 60 60 60 60 60 58 57 57 56 55 54 55 54 55 57 57 57 56 54 55
68 64 61 60 59 60 60 60 60 59 58 58 59 60 59 59 57 57 58 58 59 59 59 59 59 59 58 58 58 58 58 57 56 55 55 56 56 56 55 55 55 54 55
66 64 62 61 60 61 61 60 60 59 58 58 59 58 57 56 55 57 58 58 58 59 59 60 59 58 58 58 58 57 58 57 57 56 55 55 55 56 55 53 52 52 53
65 64 63 62 61 61 61 61 61 59 59 59 58 57 57 56 56 57 58 58 58 59 60 58 58 58 59 59 58 57 57 56 56 56 55 54 54 54 53 53 52 52 53
66 65 64 63 63 62 63 62 61 60 59 59 58 57 57 57 57 57 59 58 59 58 56 55 55 55 55 56 58 59 60 57 56 56 55 54 54 54 53 52 51 51 50
67 66 65 64 63 62 63 64 61 60 60 59 58 58 57 58 57 57 57 58 56 55 54 54 53 55 56 54 55 56 57 58 59 58 55 55 54 54 54 53 52 52 52
68 67 65 64 63 62 61 61 62 60 59 59 58 58 58 58 57 57 57 58 58 56 55 55 55 54 54 55 55 55 53 53 53 53 54 53 54 54 55 54 54 54 53
67 67 65 64 63 63 62 61 60 59 59 59 59 59 58 58 58 58 58 58 57 57 56 54 52 54 54 54 53 53 52 51 52 52 52 53 53 54 54 54 53 52 50
67 66 66 65 63 61 62 61 60 60 60 61 60 60 60 60 59 58 58 57 56 54 53 54 53 52 52 52 52 51 50 50 50 50 50 51 52 53 54 54 54 51 50
66 66 66 66 64 63 62 60 60 61 61 60 57 55 57 60 61 59 56 56 54 53 53 53 51 51 52 50 50 50 49 50 50 49 49 48 49 51 51 53 53 53 50
65 64 63 63 63 61 59 59 59 58 55 56 54 52 53 57 58 57 55 56 54 54 53 50 51 49 50 50 50 49 49 48 48 48 47 47 49 49 50 51 52 53 54
61 61 61 61 61 60 59 58 57 56 56 55 55 55 58 58 55 55 55 54 52 50 49 49 48 47 47 50 48 46 45 46 46 44 43 45 46 49 50 51 52 52 53
60 60 60 59 58 58 58 57 56 55 52 54 58 59 57 55 54 52 51 50 49 48 46 46 49 49 49 47 45 43 44 44 44 42 41 44 46 47 46 49 49 51 51
59 59 59 58 59 58 58 57 57 57 57 58 58 57 56 54 52 50 50 49 48 46 44 49 50 49 46 43 41 40 39 40 39 40 40 41 43 43 43 47 48 49 49
60 59 58 58 58 58 53 52 47 47 49 51 51 54 50 50 47 45 44 43 42 42 46 48 46 43 41 39 37 35 35 35 35 36 36 38 38 39 41 44 46 48 48
58 56 55 53 54 56 54 52 51 47 44 45 48 47 46 44 43 43 43 43 42 43 45 43 42 38 36 34 32 32 32 33 35 34 35 34 34 37 39 41 43 46 47
55 53 54 56 56 56 55 54 52 50 49 46 43 43 43 43 43 42 41 42 41 40 40 39 36 31 30 30 30 29 30 32 32 32 32 33 33 34 36 38 40 42 46
53 53 55 56 56 55 54 53 52 49 48 46 45 44 44 43 42 41 43 43 41 38 35 32 31 32 32 33 29 26 28 31 31 31 31 31 32 33 34 36 37 39 44
57 55 55 55 55 54 53 53 51 49 48 47 46 47 46 46 45 44 42 40 38 36 35 35 35 35 35 28 23 23 29 30 30 29 30 31 32 32 32 33 34 37 40
55 55 55 55 54 53 52 52 52 50 49 48 48 47 46 46 45 44 41 40 39 38 38 36 35 32 24 21 26 28 29 28 28 29 29 30 31 30 32 32 32 33 35
52 52 54 55 54 54 53 53 53 52 50 49 48 46 44 44 43 43 42 40 40 40 36 31 27 22 21 22 27 27 27 27 28 28 28 29 30 30 30 29 30 31 32
51 52 52 52 53 53 52 52 52 51 50 48 46 43 42 42 42 42 41 40 40 40 35 29 25 22 21 23 25 25 24 26 27 28 28 28 28 29 29 29 29 30 31
52 52 51 51 51 51 51 51 50 49 49 48 46 44 42 41 41 42 42 42 41 38 31 28 25 22 20 20 21 20 20 23 27 28 29 27 27 28 29 28 28 29 29
48 48 48 49 49 49 49 49 49 49 49 47 47 45 43 42 41 41 42 41 40 35 31 27 25 21 17 15 15 16 18 20 29 29 29 27 28 29 28 27 28 27 27
43 45 45 46 47 47 47 46 44 44 44 47 46 45 44 43 41 40 40 39 36 33 30 27 25 20 17 16 17 16 16 23 28 28 28 26 25 26 26 26 26 25 26

GFSGL_sfc_30mbdewp_009.txt.gz
Dewpoint
69 70 70 70 70 70 68 65 64 64 64 63 63 62 61 61 61 62 62 61 61 61 63 63 62 63 60 60 61 60 58 58 55 51 51 56 58 58 58 58 58 57 54
68 70 69 70 69 67 67 63 64 62 63 62 62 62 61 61 61 62 62 58 60 60 60 61 61 61 62 62 60 60 59 59 57 55 55 54 55 57 58 58 57 55 54
68 68 68 68 67 68 64 61 62 63 62 61 61 62 61 61 62 63 62 60 60 61 61 61 60 61 61 59 60 58 56 59 58 58 54 53 53 55 55 56 56 55 55
66 68 68 67 67 65 64 62 63 63 63 62 62 61 62 62 61 60 59 60 60 60 61 61 61 61 60 59 58 59 58 58 56 56 54 52 52 53 54 53 51 51 51
67 68 68 67 66 66 64 63 63 63 63 62 62 62 62 60 58 59 59 60 61 60 60 62 61 61 60 58 56 55 58 56 54 52 51 51 50 50 50 51 51 51 51
68 68 68 67 66 65 64 63 61 62 62 63 61 61 61 59 56 56 58 59 60 61 59 60 60 58 57 57 57 58 58 56 55 57 53 52 53 53 52 52 50 49 48
68 68 68 68 66 65 64 64 63 63 62 62 61 60 61 61 58 57 57 59 60 59 60 60 58 56 58 57 55 56 57 57 59 58 55 54 53 53 53 52 51 52 52
68 68 68 67 66 65 65 64 63 63 63 62 62 62 62 61 60 58 58 60 61 60 60 60 59 59 58 56 56 55 55 56 56 54 53 53 53 52 52 53 53 53 53
67 68 68 68 66 66 65 64 65 64 63 63 63 62 61 62 59 59 60 61 61 61 61 60 59 57 57 53 53 54 54 54 54 52 51 51 52 52 53 53 52 51 51
67 68 69 68 67 66 65 64 64 63 62 62 61 62 62 62 60 59 59 60 59 60 59 58 55 55 52 52 53 54 53 53 52 51 50 50 51 51 52 53 52 52 52
68 69 69 68 67 66 65 64 64 63 62 63 62 63 62 63 62 58 59 61 60 58 56 55 55 51 51 51 51 54 52 50 50 49 48 47 47 48 49 50 50 51 52
68 68 67 67 65 65 64 63 64 63 62 61 61 59 59 60 59 58 58 58 59 57 56 54 54 50 48 50 50 50 49 46 47 46 45 45 45 45 45 47 49 51 53
67 67 66 66 65 64 63 62 62 61 60 59 59 55 56 59 60 56 55 55 55 56 54 51 48 47 47 47 49 47 44 46 45 44 42 41 41 42 46 43 45 50 52
66 65 66 65 64 63 63 62 62 60 59 58 57 58 60 60 59 57 55 53 51 51 49 49 49 49 50 50 47 46 45 43 41 40 39 38 39 38 37 38 43 49 51
64 63 63 62 62 61 59 59 59 60 58 58 57 58 59 59 57 56 54 53 52 49 48 49 50 49 49 48 46 44 42 40 38 37 36 35 35 34 34 37 44 48 50
62 61 60 58 58 58 56 54 46 48 50 53 54 57 54 52 50 49 47 45 44 43 46 46 47 47 47 46 44 41 38 37 36 35 34 33 32 32 33 37 44 47 50
61 61 59 58 58 58 57 56 55 46 45 48 50 50 50 46 44 43 43 43 42 43 45 46 45 45 44 41 37 35 34 33 35 32 32 32 31 31 32 37 41 43 45
61 58 57 56 56 58 57 56 55 54 53 49 44 44 43 42 41 41 42 43 43 44 45 44 44 41 38 36 35 33 31 29 28 30 30 30 30 31 31 34 38 41 44
57 54 55 55 56 56 58 57 56 55 53 49 46 44 43 42 42 42 42 45 44 42 41 40 38 36 36 36 35 31 28 25 29 31 29 29 29 29 29 31 35 39 42
58 57 56 56 57 58 57 56 56 55 52 49 48 48 47 46 46 46 45 44 41 39 38 38 38 38 37 36 30 26 24 28 30 29 29 29 29 29 28 29 32 36 40
59 57 56 56 56 56 55 54 54 53 51 50 49 49 48 48 47 45 43 42 41 40 40 39 37 36 31 28 26 25 27 29 29 29 29 28 29 28 28 27 27 32 35
54 55 55 55 56 55 55 55 54 53 51 50 50 49 46 47 45 43 43 42 41 41 40 36 31 28 25 23 24 27 28 28 28 28 28 27 27 27 27 25 26 27 30
54 53 54 54 55 55 54 55 54 52 51 50 50 48 46 45 43 43 42 41 41 41 40 35 30 26 22 20 25 27 27 27 28 28 27 26 25 26 26 25 25 26 27
52 51 51 52 52 52 53 53 52 51 50 49 48 46 45 44 43 43 41 42 42 41 39 33 30 24 22 17 22 25 25 27 29 28 30 26 25 27 25 24 24 26 25
51 50 50 51 51 51 52 51 50 49 49 48 48 47 46 46 45 43 42 41 42 41 38 34 29 25 22 18 15 18 21 17 28 29 28 26 27 28 26 23 25 24 26
45 45 45 46 47 47 46 46 46 46 47 47 47 46 47 47 46 44 42 41 40 40 37 33 29 25 21 19 21 19 14 18 28 27 27 25 24 24 24 23 23 22 23

GFSGL_sfc_30mbdewp_015.txt.gz
Dewpoint
69 70 70 71 72 73 72 71 70 67 66 63 66 63 61 63 61 62 61 60 60 60 59 56 57 58 56 53 52 51 50 49 49 48 50 52 58 58 57 57 57 58 56
67 70 70 71 71 71 72 72 72 70 67 67 66 65 63 63 62 62 61 59 57 57 57 59 58 56 61 62 56 58 55 53 51 53 53 52 54 56 58 59 56 53 53
66 67 69 70 71 70 72 72 72 72 70 66 66 65 64 63 62 62 62 62 61 59 58 59 58 58 60 57 59 57 52 54 54 50 51 52 53 54 54 55 59 57 55
61 62 66 69 70 70 71 72 72 73 70 66 67 66 65 64 63 62 62 63 62 61 60 60 59 59 60 60 59 59 59 56 54 52 50 51 53 54 53 53 53 53 52
61 62 64 69 70 70 70 72 72 72 70 68 67 66 65 64 63 61 62 62 63 62 60 60 60 60 59 60 59 58 59 55 52 50 48 49 49 52 52 52 52 52 51
64 63 66 70 70 70 71 72 72 72 70 68 66 65 64 62 60 62 63 62 62 61 60 60 61 61 60 60 59 59 58 57 57 55 52 51 54 53 52 52 52 49 47
66 68 68 71 72 72 72 72 72 72 69 67 66 64 63 61 61 61 60 60 61 60 60 62 61 57 60 60 62 60 58 57 56 56 57 57 56 56 56 55 53 52 50
69 69 70 71 73 73 73 72 72 70 68 67 66 64 61 62 62 60 60 61 59 59 60 61 62 63 63 62 61 59 59 59 59 58 58 58 57 56 55 53 53 53 52
69 70 71 72 72 72 72 71 71 69 68 66 65 63 63 64 61 60 60 60 60 61 60 62 64 63 61 60 58 59 58 57 56 54 54 54 52 52 52 50 49 46 47
68 69 70 71 72 71 71 71 70 69 67 66 64 63 63 62 62 60 60 62 62 61 62 65 62 61 60 58 57 57 56 55 53 52 55 54 53 55 53 54 51 48 46
65 66 69 70 71 71 71 70 69 69 67 66 64 63 63 63 63 60 59 61 58 59 56 61 63 60 57 55 54 55 54 55 55 52 49 51 51 48 43 49 55 50 44
66 67 69 70 70 70 70 70 69 67 65 64 63 63 64 65 64 60 59 60 60 56 56 60 59 58 54 51 51 51 51 51 49 47 48 48 46 41 41 44 49 49 48
68 69 70 71 70 70 70 68 67 66 64 63 63 63 64 65 64 60 58 58 58 59 58 57 58 53 50 49 50 51 50 49 48 48 47 43 39 41 46 45 46 45 46
69 70 70 69 68 68 68 67 65 65 64 64 63 63 62 61 59 60 59 58 58 57 55 55 53 51 50 51 51 49 50 50 48 47 42 41 40 39 37 36 33 32 33
68 67 67 66 66 65 61 62 65 61 62 63 62 62 59 59 59 58 59 58 56 56 56 54 52 52 51 52 52 53 52 50 47 43 41 39 37 36 34 32 31 33 35
67 66 65 65 64 62 60 58 51 53 53 54 56 58 56 56 54 52 51 51 51 51 53 51 49 46 48 47 49 49 50 46 43 42 40 38 36 34 31 30 31 32 36
63 63 61 62 62 61 60 59 58 52 50 51 53 55 56 53 50 49 48 46 45 46 49 45 44 44 46 47 47 44 42 41 45 40 37 35 33 31 29 29 29 30 34
62 58 57 57 57 56 56 55 54 54 53 54 48 50 49 49 49 47 45 46 46 45 45 43 44 45 44 44 43 41 40 39 38 36 33 31 30 29 28 28 27 28 29
59 57 56 55 54 53 53 53 51 50 50 53 49 47 45 43 43 43 43 48 45 44 43 42 41 41 40 40 40 40 41 39 34 31 32 29 28 28 27 26 26 26 27
57 55 53 52 52 51 52 50 50 49 53 53 50 49 47 45 46 47 47 46 45 43 41 41 40 41 41 41 41 40 37 33 29 30 28 28 28 27 26 25 24 24 24
54 53 52 51 51 51 51 50 48 47 46 50 49 50 48 48 48 48 47 46 45 42 42 42 41 41 40 41 38 34 30 27 27 27 27 27 27 26 26 24 23 22 23
50 52 50 50 49 49 48 47 47 46 45 44 50 49 47 48 48 46 47 46 44 44 42 42 41 37 35 33 32 29 25 25 26 27 26 26 26 25 25 25 23 23 23
49 48 49 48 51 51 49 48 46 46 45 46 50 50 49 48 46 48 47 45 44 43 43 41 38 36 33 30 26 23 24 25 27 27 27 27 26 26 27 26 24 23 23
50 49 50 51 52 49 47 47 48 47 46 47 50 49 49 48 45 47 46 46 44 43 42 41 38 34 32 30 21 21 22 26 28 27 31 28 28 28 29 26 24 24 23
50 50 50 49 48 46 46 45 45 46 47 47 47 48 49 48 45 46 46 46 45 43 42 40 38 35 34 30 22 24 22 19 23 25 26 29 29 29 26 24 24 23 23
48 47 46 46 45 45 44 43 42 45 46 46 45 47 46 46 45 45 47 46 45 40 40 40 38 37 33 28 25 20 15 12 20 25 27 26 28 27 25 23 24 22 22

GFSGL_sfc_30mbdewp_021.txt.gz
Dewpoint
73 72 73 74 73 72 72 70 69 68 68 69 69 68 66 66 66 67 64 63 64 62 64 62 62 60 59 58 60 57 57 59 56 54 55 56 59 57 58 58 59 60 59
73 73 72 73 74 72 71 72 71 68 69 69 69 69 66 64 67 66 63 63 62 64 62 62 60 62 59 58 60 59 60 59 56 54 57 56 56 57 58 59 59 61 60
73 73 73 72 73 73 72 72 73 70 70 69 70 68 67 65 65 66 64 63 63 63 63 62 61 60 59 60 60 59 61 59 59 58 56 57 56 57 56 57 58 58 60
73 73 72 73 73 73 73 72 72 73 70 69 69 68 67 65 66 66 65 63 63 63 63 64 62 60 59 62 62 61 60 60 59 58 58 57 57 56 58 55 54 56 55
71 72 71 72 73 73 73 74 72 72 72 70 69 68 67 65 66 64 64 64 63 64 64 64 63 62 62 63 63 61 60 60 59 58 57 55 54 55 56 56 56 56 56
69 70 71 71 72 72 72 73 74 72 73 71 69 69 68 66 65 65 64 63 64 64 63 64 63 62 62 62 63 62 62 60 58 57 56 54 55 57 57 57 57 55 53
66 69 69 70 71 71 72 72 73 73 73 73 71 68 68 67 65 64 64 64 64 64 64 64 63 63 61 62 63 63 62 61 59 58 55 55 54 56 58 57 56 56 55
64 67 68 69 70 71 71 72 72 73 72 73 72 70 69 68 66 64 64 63 63 64 65 65 63 60 59 62 61 61 60 60 61 60 58 57 58 59 59 58 57 55 54
62 64 67 68 69 70 71 71 72 72 73 73 72 70 69 67 65 62 62 62 62 63 63 63 57 55 56 61 59 58 57 59 60 60 59 60 60 59 59 57 53 52 51
61 64 66 67 68 70 71 71 72 73 73 73 71 69 68 66 63 60 60 60 60 61 61 62 57 57 59 59 59 58 58 58 59 58 58 57 56 54 54 54 54 52 52
64 66 68 69 70 71 72 72 74 73 71 69 68 68 67 66 64 62 61 61 60 59 60 62 62 60 59 60 59 59 59 58 56 54 52 52 51 51 53 55 54 55 52
71 69 74 73 74 75 74 73 72 71 69 68 67 66 65 65 64 62 61 61 61 60 61 61 61 60 60 59 58 59 57 54 52 50 50 50 50 51 48 48 49 52 55
72 73 74 74 75 74 73 71 70 69 68 67 66 65 64 65 64 62 60 59 59 61 61 59 58 59 59 58 57 57 54 51 50 49 50 51 50 47 48 44 44 42 41
73 73 72 72 71 71 70 69 68 67 66 65 64 64 64 65 64 62 59 57 57 59 57 57 56 56 56 56 54 53 51 50 49 50 51 51 50 43 41 44 39 38 35
71 70 70 69 66 63 58 62 66 63 65 65 64 64 64 64 64 62 61 60 59 60 58 57 55 54 54 53 53 53 51 50 50 52 53 51 43 42 42 39 38 35 34
68 68 66 65 63 62 60 57 51 54 58 62 64 64 60 62 63 61 60 59 59 58 57 58 56 54 53 53 53 52 54 53 52 53 50 44 42 42 38 37 38 35 36
67 66 65 64 63 62 61 60 59 52 52 53 55 58 58 57 57 57 55 54 54 55 56 56 57 56 55 55 56 55 54 54 53 47 45 43 37 35 35 37 34 35 35
66 64 64 63 63 62 61 59 57 57 56 55 51 51 52 52 52 51 50 51 51 50 53 52 51 51 50 48 46 45 45 46 41 37 35 34 33 36 36 33 32 34 31
65 64 64 63 63 62 62 60 59 58 56 54 50 50 47 48 48 48 47 52 52 50 49 48 48 45 45 45 46 45 43 40 38 36 32 35 37 35 32 30 32 31 31
63 65 64 63 63 62 62 61 58 58 56 53 52 51 48 47 49 48 47 49 49 49 50 46 45 44 44 44 44 42 41 39 38 38 39 37 34 32 29 30 32 29 31
57 55 59 58 59 58 58 57 57 57 55 53 53 51 49 50 50 49 48 50 48 50 46 45 44 43 43 43 43 40 37 34 33 36 32 30 31 30 33 32 30 31 32
56 54 54 54 53 53 53 52 56 56 55 53 53 50 49 51 51 51 50 50 51 48 47 45 43 41 43 40 37 34 31 29 33 33 31 30 30 31 33 30 32 33 30
53 55 54 53 53 53 54 52 53 55 55 54 52 50 48 50 52 52 52 51 49 48 47 45 42 40 40 35 31 28 26 33 34 34 32 31 30 31 34 32 32 31 27
54 54 55 55 55 55 53 51 51 51 51 51 50 49 48 49 52 52 52 50 47 47 46 44 41 35 34 33 31 32 33 32 31 26 25 27 29 31 32 33 29 28 27
55 55 55 55 54 53 53 54 53 52 52 51 50 50 50 51 50 51 50 48 47 46 46 45 41 39 37 29 24 22 24 22 20 22 26 27 26 28 30 30 26 29 28
54 54 53 53 53 52 51 50 51 52 53 51 51 52 52 50 49 50 49 47 46 46 45 45 41 40 37 32 24 20 18 20 19 18 19 20 23 29 33 29 27 30 29

GFSGL_sfc_30mbdewp_024.txt.gz
Dewpoint
70 70 70 71 70 71 72 71 69 67 67 67 69 67 65 64 63 66 64 64 62 62 64 62 61 61 59 58 59 58 58 58 55 56 56 54 58 56 56 60 59 58 59
71 71 71 71 71 70 70 72 70 68 67 67 68 68 66 65 64 64 64 63 63 62 61 63 62 62 61 60 58 58 57 58 56 53 56 57 57 57 57 58 58 60 60
70 71 72 72 72 71 70 70 71 69 68 68 68 68 66 65 65 65 64 64 62 62 63 62 61 60 60 60 59 59 60 61 59 58 56 58 57 57 57 57 57 57 58
71 70 70 72 73 72 71 70 71 71 69 68 68 68 67 65 64 66 65 64 63 62 63 63 63 61 60 59 60 61 61 60 60 59 59 58 58 57 58 55 54 56 56
71 71 71 71 72 73 72 71 70 72 70 69 69 68 67 66 65 64 65 64 63 63 63 63 64 63 62 61 60 61 60 59 59 58 58 57 56 55 55 56 56 56 57
71 71 72 72 71 72 72 72 72 71 72 70 68 68 67 66 65 65 65 64 63 63 62 63 63 63 63 62 64 62 61 60 58 58 58 57 56 55 57 57 56 56 53
70 71 71 72 72 72 72 72 73 72 71 71 69 68 67 67 65 64 65 64 64 64 63 62 63 64 63 63 62 62 62 61 60 59 57 56 56 56 55 56 56 56 55
69 70 71 71 71 72 72 72 72 73 71 72 70 69 68 68 66 64 64 65 64 64 64 63 62 63 63 62 61 61 61 61 61 61 59 57 58 57 57 58 58 57 55
67 69 70 71 71 71 71 72 72 72 73 72 72 70 69 68 66 63 64 64 64 64 64 64 64 63 62 61 60 59 60 60 62 61 60 60 59 59 59 58 57 55 52
64 66 69 70 70 70 71 71 72 72 72 72 73 71 69 69 65 63 65 64 63 63 63 63 63 62 59 57 57 59 58 58 59 59 58 57 57 56 56 56 54 52 52
63 64 66 69 69 70 70 71 71 72 72 73 72 70 69 68 64 62 63 63 62 61 60 60 62 60 57 56 58 59 58 58 58 56 54 52 51 51 51 53 55 53 49
62 63 64 67 68 69 70 71 71 72 72 70 68 67 67 66 63 61 61 61 61 59 59 59 61 61 59 58 58 59 59 58 55 53 50 49 49 50 49 47 47 48 53
62 62 66 67 67 70 71 72 72 71 70 68 68 66 66 66 64 63 61 61 61 61 61 61 60 60 59 58 58 58 57 55 53 50 48 49 51 51 48 43 43 42 40
65 66 70 70 72 72 72 72 71 70 68 67 67 66 65 65 64 62 61 59 59 61 61 58 57 56 56 56 56 56 55 53 51 49 49 51 52 47 42 43 39 37 36
72 73 73 72 71 66 61 66 68 66 68 66 65 65 64 64 63 62 61 59 59 59 58 56 56 56 55 54 54 53 53 51 50 51 51 52 51 43 41 41 38 37 34
70 68 66 64 62 60 60 58 53 60 64 64 65 64 62 64 63 61 60 59 59 58 58 57 56 54 53 53 52 52 52 52 51 51 52 51 45 42 40 36 38 35 33
67 65 64 63 63 63 62 61 59 54 55 60 62 62 63 63 61 60 58 57 57 58 56 56 56 55 55 54 55 54 53 54 53 52 47 44 39 35 35 36 33 33 32
65 65 65 64 64 64 63 61 60 61 59 57 52 56 56 58 58 56 54 53 53 54 55 55 55 55 53 51 51 49 50 50 48 39 35 34 33 35 36 32 30 31 32
64 64 64 63 63 61 60 59 59 58 56 53 51 50 47 51 52 51 51 53 52 52 51 51 50 48 47 45 44 44 43 41 39 37 34 34 36 35 32 30 30 32 32
64 63 63 62 62 61 60 59 58 57 55 53 53 52 48 51 52 51 51 52 52 51 50 48 46 45 44 44 43 42 41 39 38 38 37 37 34 33 30 31 32 30 32
63 63 62 62 62 62 60 59 59 58 55 54 54 52 51 53 52 51 51 50 50 49 47 45 44 44 44 44 42 40 37 35 32 33 35 31 31 29 33 32 31 33 32
59 61 62 61 61 61 61 59 58 58 56 54 53 51 49 51 51 50 49 49 50 49 46 45 44 43 44 43 42 38 34 30 32 33 31 31 31 32 33 33 32 32 29
56 56 57 57 56 56 56 58 58 57 55 54 52 50 49 51 51 50 50 50 50 50 47 45 42 41 41 40 36 32 29 31 33 33 32 30 30 30 32 32 32 29 28
55 55 54 55 54 54 54 55 56 56 56 54 53 51 50 51 51 51 51 51 51 49 47 44 41 38 35 32 29 28 33 34 34 32 30 26 24 29 29 31 30 27 29
55 55 55 55 54 53 53 53 55 55 54 53 52 51 50 50 50 52 53 52 50 47 45 43 39 36 32 30 28 30 32 29 23 22 24 25 23 23 29 33 29 29 29
55 55 55 54 55 55 55 55 54 53 52 51 51 51 50 50 50 51 51 50 48 47 47 43 38 34 32 28 26 27 26 22 21 20 19 18 18 26 30 33 31 28 26

GFSGL_sfc_30mbdewp_027.txt.gz
Dewpoint
67 68 68 69 69 69 68 69 69 69 68 68 69 68 67 65 65 64 64 63 62 62 63 61 60 60 59 59 59 58 56 54 52 56 57 55 56 56 56 58 60 60 58
67 67 67 68 69 70 69 70 70 68 67 67 68 68 66 65 63 65 64 64 63 61 62 63 62 62 61 60 58 58 56 58 56 53 55 57 57 57 57 57 58 59 59
67 67 68 68 69 69 69 70 71 69 67 67 67 67 66 65 64 63 65 64 63 63 61 61 62 62 61 61 60 58 59 61 60 58 57 58 58 57 57 57 57 56 57
67 68 68 69 69 69 69 69 71 70 68 67 67 67 67 66 65 64 63 63 63 63 63 62 61 61 61 60 59 59 60 60 60 59 58 58 58 57 57 56 55 56 56
67 68 68 69 70 70 70 69 69 70 69 68 67 67 67 66 66 65 64 63 63 63 62 63 63 63 62 61 60 60 61 60 59 58 57 57 55 56 55 56 55 56 56
68 68 69 69 70 70 70 70 69 70 70 69 68 67 67 67 66 65 65 65 64 63 63 63 63 64 64 63 62 61 61 59 57 57 57 56 57 56 57 57 56 55 55
68 69 69 69 70 71 71 71 70 70 70 69 68 68 67 67 66 65 64 65 64 64 63 63 63 63 63 63 63 63 62 61 59 58 57 57 56 57 57 56 55 56 55
68 69 70 69 69 70 71 71 71 71 70 71 69 68 68 67 66 64 64 65 64 64 64 64 63 63 63 63 62 62 61 61 61 60 59 58 58 58 57 57 56 57 56
68 69 70 70 70 70 70 71 71 72 71 71 70 69 68 68 66 64 64 65 65 65 65 65 64 63 63 62 62 60 60 60 62 61 61 60 60 60 59 58 56 55 53
68 68 70 70 70 71 71 71 71 72 72 71 71 70 69 69 67 64 63 66 65 65 65 65 64 64 62 62 61 59 58 58 58 60 60 59 58 57 56 57 55 52 51
67 68 69 70 70 71 71 71 71 72 72 72 71 72 70 70 67 64 63 66 65 64 64 63 63 62 61 60 60 57 56 59 58 58 57 55 52 50 50 52 54 53 50
63 66 68 69 70 70 70 71 71 71 71 72 72 71 70 69 65 61 63 65 65 64 62 61 61 61 58 56 56 57 59 59 58 56 54 51 48 49 51 47 48 50 52
62 64 65 68 69 70 70 71 71 71 71 70 70 69 66 65 62 63 63 64 62 61 60 60 60 60 58 58 57 57 58 58 56 54 52 49 49 51 49 44 43 42 39
61 62 64 65 68 69 70 70 71 71 71 70 68 67 66 65 63 60 62 61 60 61 60 59 59 58 58 56 56 57 57 56 55 53 50 49 51 50 45 42 40 37 36
60 61 62 64 66 67 62 68 71 71 71 69 68 67 65 64 64 63 62 61 60 60 59 57 57 56 55 54 54 54 54 54 52 50 49 50 51 49 44 42 39 37 34
67 64 68 67 63 61 62 60 60 65 66 66 66 66 65 65 64 61 61 60 59 58 59 58 57 56 55 54 53 52 52 52 51 50 50 50 50 46 42 37 37 36 32
58 64 63 63 62 63 64 63 60 57 60 62 64 64 65 63 60 59 59 58 57 58 59 58 58 56 54 53 52 52 52 52 52 51 51 49 45 41 36 35 34 32 30
62 62 64 64 65 64 63 63 63 62 61 60 52 58 60 59 58 56 54 55 55 57 57 57 56 55 54 55 54 53 53 53 52 51 46 39 35 34 35 32 31 30 32
64 63 64 64 64 63 62 61 60 62 62 56 52 53 51 53 55 55 56 57 56 55 54 54 55 54 53 51 49 48 48 46 43 38 36 34 36 36 32 31 30 32 32
63 62 63 62 61 60 60 60 59 57 57 57 58 55 51 55 56 54 54 54 53 53 52 52 50 48 47 46 44 43 42 40 38 37 36 35 36 34 29 30 31 30 31
63 63 62 62 61 60 60 60 58 57 57 57 56 54 54 57 55 53 52 52 52 51 50 49 47 45 45 44 43 42 41 39 37 34 34 37 33 30 32 32 31 32 31
62 62 62 62 61 60 59 59 58 56 55 55 53 50 51 53 53 51 51 51 51 49 48 46 44 44 44 43 42 40 38 35 32 33 34 31 31 32 33 32 32 31 28
60 60 60 60 60 60 59 58 58 57 55 55 53 50 51 52 51 51 51 51 50 48 46 45 44 44 44 44 42 39 35 32 32 34 31 31 31 30 32 31 31 28 28
55 56 56 57 59 59 58 58 57 56 55 54 53 52 52 52 52 51 51 50 50 49 46 45 44 43 43 42 39 34 31 32 34 33 32 30 29 29 30 31 30 27 29
54 54 54 54 54 54 55 56 57 57 56 54 53 51 51 52 52 51 51 51 50 49 47 45 42 40 39 35 31 29 30 33 33 32 29 24 22 22 25 32 30 28 29
56 55 55 55 53 54 54 55 55 55 54 54 54 52 51 51 51 51 52 51 50 49 47 45 42 39 35 32 30 30 31 31 27 23 23 23 21 20 28 33 33 29 26

GFSGL_sfc_30mbdewp_030.txt.gz
Dewpoint
68 68 68 68 68 68 68 68 68 69 69 69 70 70 69 68 66 65 64 63 63 63 62 61 61 61 59 59 60 58 56 54 52 55 56 57 57 58 58 59 60 61 60
67 68 68 68 68 68 68 68 69 68 69 69 69 69 69 68 67 65 64 64 62 62 63 62 61 61 60 60 59 59 58 59 57 55 56 57 57 57 57 57 58 58 60
66 68 68 68 68 68 68 69 69 69 68 68 69 68 68 67 66 66 65 64 63 63 62 63 63 62 61 61 60 59 59 59 59 57 57 58 59 59 58 57 58 58 58
64 66 67 68 68 68 69 69 69 69 68 68 68 68 68 67 66 66 65 65 64 64 63 63 62 62 62 62 61 60 60 60 61 60 59 59 59 59 58 56 56 57 57
64 65 66 67 67 68 69 69 70 70 69 68 68 68 68 67 66 66 65 65 64 64 64 64 63 62 62 62 61 61 61 60 61 60 59 58 57 57 55 56 56 57 58
64 65 66 67 67 68 68 68 69 70 70 69 68 67 67 67 66 65 65 64 64 64 63 63 64 64 63 62 61 61 62 61 60 59 58 56 56 57 57 57 56 57 54
65 65 67 67 68 68 69 69 69 69 70 69 68 68 67 67 66 65 65 65 65 64 64 64 63 64 64 64 63 62 62 61 61 60 58 57 58 59 58 57 57 57 56
65 66 67 68 68 69 69 69 69 69 69 69 69 69 68 68 66 64 65 66 66 65 64 64 64 64 64 64 63 63 63 63 62 61 60 60 60 60 59 59 58 58 58
66 66 68 68 69 69 69 70 70 70 69 69 69 69 68 68 66 65 64 65 65 65 65 65 65 64 64 63 62 62 62 61 62 61 61 61 60 59 60 59 58 57 55
67 67 68 69 69 69 69 70 70 70 70 70 70 70 69 69 66 64 64 66 65 65 65 65 64 65 63 62 63 62 61 60 60 61 62 61 60 60 59 60 57 55 53
66 68 68 69 69 69 69 69 70 71 71 70 70 70 70 69 68 64 63 66 66 65 65 65 65 63 62 61 62 62 61 61 59 58 59 58 56 54 52 55 56 55 53
66 68 68 69 70 70 70 70 70 71 71 71 71 70 70 70 69 63 63 66 66 66 65 65 64 62 61 60 60 61 58 58 59 59 57 56 53 50 52 51 53 55 55
63 66 68 69 70 70 70 70 71 71 70 70 70 70 70 70 66 63 61 64 65 66 65 64 62 59 58 57 59 59 58 59 59 57 56 54 51 52 52 50 48 48 47
61 63 65 68 69 70 70 70 70 70 70 70 70 69 70 66 64 60 61 62 63 62 61 60 59 59 59 59 57 56 58 59 58 56 55 53 52 52 50 46 44 42 39
62 61 63 64 66 69 68 68 70 71 71 71 70 70 68 64 61 62 62 62 63 61 59 58 58 58 57 56 56 57 57 57 56 54 52 51 51 51 49 46 43 40 38
67 66 63 64 65 64 64 62 60 67 69 69 67 66 65 63 61 62 63 62 59 58 59 59 58 58 57 55 55 54 55 55 55 53 52 51 51 51 49 43 40 39 37
61 65 64 64 64 64 64 64 61 56 62 63 64 64 63 63 62 61 60 59 58 59 60 59 59 58 57 56 55 53 53 53 53 52 52 51 51 48 44 39 39 37 35
61 63 64 64 65 65 65 64 62 61 61 61 60 61 60 60 57 57 56 55 56 59 60 59 59 58 57 55 54 53 53 54 53 53 52 51 48 42 38 38 36 34 34
58 62 64 65 65 64 63 61 61 60 60 60 55 52 54 55 53 53 56 60 58 58 59 59 59 58 56 55 54 54 54 53 52 51 48 43 39 38 38 36 34 33 34
59 63 63 62 62 61 59 60 61 60 58 57 57 55 49 52 53 56 59 59 59 58 57 56 56 56 55 54 51 50 48 47 45 43 40 38 39 38 34 33 34 33 35
63 63 61 61 61 61 59 59 59 59 58 59 58 55 57 60 58 58 56 56 56 55 55 54 53 52 51 49 47 45 44 42 41 41 40 38 39 36 34 35 33 34 34
62 62 62 61 61 60 60 59 59 59 59 56 53 54 58 58 57 56 55 54 54 54 53 52 50 49 48 46 45 44 43 42 41 39 37 38 37 34 35 34 34 33 31
61 62 61 61 60 59 59 58 58 57 57 56 55 55 56 56 55 55 54 53 52 52 51 49 48 47 46 46 45 44 41 40 39 37 36 36 34 34 35 34 33 31 30
59 59 60 59 59 59 59 58 57 56 56 55 54 54 55 55 55 54 53 53 52 50 49 48 46 45 46 45 45 43 40 38 37 37 36 34 33 33 33 33 33 30 30
56 56 57 58 59 58 58 58 58 57 57 56 55 53 53 53 53 53 52 52 52 50 48 47 46 46 45 45 43 41 36 32 35 36 36 35 33 32 29 30 33 30 31
56 56 55 55 56 56 56 57 57 57 57 56 55 54 53 53 53 52 52 51 51 50 48 47 45 44 43 43 41 36 30 31 33 33 33 30 27 26 26 31 35 31 30

GFSGL_sfc_30mbdewp_033.txt.gz
Dewpoint
68 68 69 69 69 70 70 70 70 70 70 71 71 71 71 72 71 70 68 67 66 65 64 64 64 64 61 60 60 59 57 56 53 54 56 60 60 61 59 61 61 62 59
67 68 69 69 69 69 70 70 71 71 71 71 71 71 71 71 71 70 69 67 66 65 65 64 64 63 64 62 61 60 58 59 56 58 58 59 60 62 61 62 59 57 59
67 68 68 69 69 69 70 70 71 71 71 70 71 70 70 71 71 70 70 68 67 66 65 65 64 63 63 60 61 60 59 60 61 57 56 58 59 59 60 60 60 59 59
65 67 68 69 69 69 70 70 70 71 71 71 71 71 70 70 70 70 70 69 68 67 66 65 64 64 63 64 63 63 61 61 61 60 58 58 59 60 60 57 56 58 57
65 66 67 69 70 70 70 70 71 71 71 71 71 71 71 70 69 70 69 69 68 67 67 66 65 65 65 65 63 64 63 62 61 59 59 58 58 58 56 53 56 57 58
65 65 67 69 70 70 70 70 71 71 71 71 70 70 70 69 68 68 69 68 68 68 67 67 66 65 65 64 63 64 65 63 62 60 58 57 58 59 56 57 56 55 53
65 66 67 69 69 70 70 71 71 71 71 71 70 70 70 70 67 66 67 68 68 68 68 67 66 65 65 64 62 62 62 63 63 63 61 60 59 59 60 60 58 57 56
65 66 67 68 69 69 70 70 70 71 71 71 71 70 70 70 67 65 65 68 69 68 68 68 67 66 66 66 65 64 63 64 63 62 63 62 62 62 61 59 61 60 59
66 66 67 68 68 69 69 70 70 70 70 71 71 71 70 70 67 65 64 67 68 68 68 68 68 67 67 64 65 64 64 64 64 63 63 62 60 61 61 60 58 56 52
66 67 68 68 69 69 70 70 71 70 70 70 70 71 71 70 67 64 65 67 67 67 68 68 66 67 66 63 65 65 64 63 63 62 62 61 61 61 60 62 58 53 48
65 66 68 69 70 70 70 71 71 71 70 70 70 71 71 71 70 65 63 68 67 68 67 67 67 64 63 62 64 65 64 63 63 63 61 60 61 61 59 60 59 53 49
66 68 69 70 69 69 71 71 71 71 71 71 71 70 71 71 69 65 63 64 68 67 67 67 67 63 62 60 61 64 63 63 61 59 58 58 57 56 55 54 55 55 53
67 68 69 70 71 71 71 70 70 71 70 70 70 69 69 71 71 67 64 62 65 68 69 67 66 61 61 60 60 61 60 61 59 58 57 56 56 56 54 55 54 55 55
66 68 69 70 70 71 71 71 70 69 70 69 70 70 70 70 70 63 62 60 62 66 64 62 61 60 62 62 59 58 62 61 59 58 57 57 56 54 52 51 49 47 46
65 66 67 68 69 70 71 71 69 70 70 70 70 70 70 68 63 62 62 62 61 59 60 61 60 60 61 60 60 59 60 60 59 59 58 56 54 52 51 51 50 48 45
68 65 64 63 65 67 70 68 64 64 69 69 70 71 71 62 59 59 59 59 60 61 61 59 60 60 60 60 59 59 59 59 59 58 57 55 53 51 51 50 49 46 43
64 67 67 66 66 68 68 67 67 65 61 65 67 66 63 58 59 58 57 58 60 61 61 61 60 60 59 58 58 57 57 57 58 56 55 53 52 52 51 49 46 43 40
64 63 65 66 65 65 66 66 65 65 65 58 54 60 59 58 57 57 57 59 58 61 61 61 60 60 59 58 57 56 55 56 55 54 54 53 53 52 50 47 43 40 36
61 64 64 63 62 63 62 62 62 63 64 60 57 57 56 54 53 53 54 60 59 60 61 61 61 60 60 59 57 56 55 54 54 54 53 53 52 49 46 43 39 34 33
63 63 64 62 60 59 59 59 60 60 60 59 59 58 51 54 54 54 60 60 60 61 62 62 61 60 60 59 57 56 56 55 54 53 51 49 47 44 41 38 34 31 32
63 62 62 63 62 60 59 60 60 59 59 60 59 59 55 58 56 57 60 61 61 61 62 62 61 60 59 57 56 54 52 50 49 47 45 44 43 39 38 34 31 31 28
62 62 62 61 61 61 59 60 60 60 59 58 56 55 54 59 59 60 61 61 62 61 60 58 57 56 55 54 53 49 46 45 44 44 43 41 40 38 35 33 31 30 29
63 62 62 61 61 60 60 59 60 60 59 57 56 56 57 60 61 60 59 58 57 56 56 55 54 53 52 51 48 45 43 43 43 43 40 38 36 34 33 32 31 30 28
61 61 61 62 62 61 60 59 58 58 58 57 57 58 59 59 58 57 56 55 54 54 54 54 52 50 50 46 46 44 43 41 41 40 38 35 34 34 33 31 30 28 27
56 57 59 60 60 60 60 59 59 59 58 57 57 57 56 56 56 56 55 54 53 52 52 51 50 49 47 45 44 43 40 39 40 37 38 36 34 35 32 30 27 26 27
55 57 57 58 57 58 58 58 58 58 58 57 56 55 57 56 56 55 54 54 53 51 50 49 48 47 47 47 45 42 37 34 36 35 35 35 34 33 29 27 25 25 26

GFSGL_sfc_30mbdewp_036.txt.gz
Dewpoint
69 70 70 70 71 72 71 72 72 71 71 70 70 70 70 70 72 72 70 68 69 68 65 62 65 62 57 57 57 56 55 54 51 50 54 59 61 60 57 59 60 58 57
68 71 71 70 71 70 72 72 73 72 72 72 71 71 70 70 71 72 71 68 69 68 67 65 64 63 63 61 58 59 56 57 55 54 55 56 61 60 61 62 59 56 56
67 67 68 69 69 70 72 72 72 73 73 70 72 72 71 70 71 72 71 70 69 69 67 66 65 63 63 59 60 57 58 59 59 56 54 57 56 59 61 62 61 59 59
63 65 67 69 70 70 71 72 72 73 73 72 73 73 72 71 70 70 71 70 70 69 69 67 66 63 64 63 60 61 59 58 58 58 55 54 57 57 59 56 56 59 56
64 64 67 70 71 71 71 72 73 73 73 73 73 73 73 71 68 70 71 70 70 70 69 68 67 66 64 64 61 63 62 61 56 57 57 55 55 55 56 56 54 54 57
64 65 67 70 71 71 72 72 73 73 73 73 73 73 72 70 67 67 71 70 70 70 70 69 68 67 66 64 64 63 64 63 62 56 56 55 57 57 57 56 54 55 52
65 67 68 70 71 72 72 73 73 73 73 73 73 73 73 72 67 66 68 69 69 71 71 69 68 67 67 66 64 64 63 64 64 63 61 59 58 60 59 59 58 56 56
66 67 69 70 71 72 73 72 73 73 73 73 73 73 73 73 69 66 67 70 70 70 71 70 70 68 68 67 67 65 63 65 65 63 62 62 63 62 62 61 59 60 59
66 68 69 70 69 70 72 72 72 72 72 72 72 73 73 72 69 67 66 69 68 70 71 71 71 70 69 66 67 66 65 65 64 63 63 63 63 62 62 59 57 57 54
66 67 68 69 70 70 72 72 72 72 71 71 71 72 73 73 70 67 66 68 67 67 71 72 69 70 69 66 67 68 66 66 65 64 64 63 62 62 60 61 57 55 53
64 64 67 70 71 71 72 72 72 72 70 72 71 72 73 73 73 66 65 69 66 67 65 68 69 67 66 65 66 68 67 67 66 65 64 63 63 62 61 61 60 57 51
64 65 68 70 69 69 72 73 72 72 72 72 72 71 71 73 71 66 64 66 68 67 66 66 67 66 64 63 64 67 66 66 66 64 63 60 60 59 58 59 60 59 51
65 67 68 69 70 70 71 72 71 72 69 70 69 69 69 69 72 69 63 63 65 68 67 67 67 64 63 60 62 64 64 66 65 63 60 59 58 58 58 58 58 58 57
67 68 69 70 70 70 70 70 70 69 69 67 68 68 68 68 69 70 66 61 61 64 66 66 64 63 63 62 61 62 65 65 65 62 59 59 59 57 57 55 53 53 49
68 68 68 68 70 70 70 68 68 69 67 68 68 69 66 66 68 71 67 63 65 65 61 61 61 61 61 61 61 62 65 64 63 61 59 58 57 56 55 52 50 49 48
65 64 63 63 66 67 67 69 68 66 64 64 63 66 66 67 66 66 65 63 62 61 63 61 61 61 61 61 62 62 63 64 62 61 59 59 57 54 53 52 51 49 47
64 66 66 64 60 61 64 65 65 66 66 64 64 65 67 65 64 62 61 59 59 60 61 59 60 61 61 62 62 62 61 63 63 61 59 57 55 54 52 51 51 49 47
63 64 63 65 66 66 66 66 67 67 67 68 60 55 57 59 60 60 58 57 57 60 60 60 60 61 61 61 62 62 61 61 60 59 57 55 54 52 51 50 49 46 44
62 63 63 63 64 65 64 62 61 61 60 58 56 54 54 52 52 50 52 61 60 61 63 62 61 60 61 61 60 59 59 58 57 57 55 53 52 51 50 47 45 42 38
63 63 62 61 62 62 62 62 60 60 59 59 58 56 57 58 57 58 57 58 60 63 62 60 60 60 60 60 60 58 56 56 55 55 53 52 50 49 46 45 42 38 35
59 59 61 61 59 57 58 59 60 60 60 60 58 59 58 57 56 57 58 58 61 62 63 61 60 61 62 62 60 57 55 55 54 54 51 50 49 46 44 41 37 33 31
62 60 58 58 58 58 58 58 57 59 59 59 60 57 57 60 58 58 59 61 62 63 63 63 62 63 61 60 58 55 55 53 52 50 49 47 46 44 40 36 32 30 29
58 60 60 61 60 60 59 59 59 60 59 59 59 59 59 59 60 60 61 62 63 63 65 64 63 60 58 57 56 53 50 49 48 47 45 44 42 40 36 33 31 30 28
58 58 58 59 60 58 58 59 58 58 58 58 59 60 61 61 61 61 62 61 60 59 57 57 55 55 55 53 52 49 46 46 46 46 45 43 40 36 34 32 31 29 28
55 56 56 56 57 57 56 55 57 59 59 59 58 59 60 60 59 57 55 55 54 54 54 53 52 53 52 49 46 45 42 42 43 41 42 39 37 35 32 31 30 29 27
53 54 54 55 54 56 57 57 58 58 58 57 58 58 58 57 57 55 54 53 51 51 50 50 50 50 48 47 45 42 39 38 39 37 38 37 36 35 32 31 30 26 25

GFSGL_sfc_30mbdewp_042.txt.gz
Dewpoint
73 74 73 74 74 73 71 72 73 71 73 70 73 73 73 73 73 74 72 72 72 72 71 70 70 66 63 63 60 60 60 58 56 57 62 64 62 61 62 63 63 64 63
73 74 73 74 74 74 73 72 73 73 72 74 73 73 73 73 74 73 73 70 72 72 71 70 70 68 66 66 67 61 60 61 59 58 62 64 64 63 65 65 62 62 64
72 73 73 73 74 74 74 73 73 73 74 72 74 74 72 73 73 74 73 72 70 73 72 71 69 69 67 65 65 64 63 64 64 60 61 64 65 67 64 65 66 65 64
69 71 72 73 73 74 74 74 73 74 73 73 73 73 74 73 73 73 73 73 73 71 73 73 71 69 68 68 66 64 64 63 62 62 61 60 63 65 66 64 64 66 64
65 69 70 72 73 73 74 74 75 74 74 74 74 74 74 74 73 73 73 73 73 72 72 73 72 71 69 69 68 67 64 63 64 62 61 61 60 62 61 62 61 63 64
65 66 69 71 72 73 73 73 74 75 74 75 74 73 74 73 73 72 73 73 73 73 73 72 72 71 70 68 68 67 67 64 62 61 61 60 61 61 63 62 60 61 59
65 67 68 70 71 73 73 73 73 74 75 75 75 74 74 74 72 71 71 72 72 73 73 73 72 72 71 70 67 66 64 65 64 63 61 62 63 64 64 63 63 61 60
66 66 69 71 71 73 73 73 74 74 74 74 75 75 74 74 73 71 69 71 72 72 73 73 73 72 72 71 69 66 66 64 64 66 66 65 66 66 65 66 64 63 63
65 68 68 71 71 72 73 73 74 74 74 75 75 75 75 75 73 71 69 70 71 71 72 73 73 73 72 69 70 68 66 65 64 64 65 68 67 66 67 65 63 62 61
66 66 70 69 71 71 73 74 74 74 74 74 74 75 75 75 74 71 69 71 70 70 71 72 71 72 72 69 69 69 68 66 66 65 65 64 63 64 64 66 64 62 60
67 68 69 71 70 72 73 74 75 75 74 75 74 75 75 75 75 72 68 72 72 70 69 69 70 69 69 69 67 69 69 69 67 66 65 65 65 66 64 65 65 63 60
59 69 70 72 71 71 73 75 75 75 75 74 74 74 75 75 74 73 69 69 73 72 70 69 69 69 67 67 67 69 68 69 69 67 66 65 65 65 66 65 65 65 63
66 69 71 72 73 72 73 74 74 75 74 74 73 73 73 74 74 72 70 68 69 70 72 71 68 66 65 65 66 67 66 69 69 67 67 66 66 66 66 66 65 64 64
69 71 72 72 73 73 72 74 73 73 74 74 73 73 72 72 73 72 71 67 67 67 70 71 70 69 67 65 66 63 68 70 70 68 67 67 67 66 66 66 65 64 63
71 71 72 72 73 73 73 72 73 73 72 72 72 71 70 70 70 68 69 72 70 69 70 71 71 70 70 68 67 66 68 70 69 69 68 66 66 66 65 65 64 63 61
70 70 70 69 71 72 73 72 60 62 62 62 63 67 68 65 63 65 68 69 68 66 68 69 71 71 69 68 66 66 68 69 69 69 67 66 65 64 64 64 63 61 59
72 70 69 69 68 71 71 71 70 59 54 57 56 55 56 56 56 60 62 62 62 65 69 68 69 68 67 67 66 66 67 68 69 68 66 65 63 63 63 62 61 59 56
66 63 66 67 68 69 70 70 69 69 68 67 58 56 54 54 54 52 55 60 65 64 67 67 67 68 67 66 66 66 67 68 68 67 65 63 64 63 62 61 59 56 55
63 63 63 65 65 64 64 64 64 64 64 63 61 60 57 55 55 55 54 62 62 62 63 62 62 63 64 64 64 64 64 64 65 65 64 63 63 62 61 60 58 55 54
64 62 63 64 64 62 62 61 61 61 61 60 60 60 60 60 59 60 61 61 61 61 59 58 61 64 63 64 63 64 64 64 63 62 64 64 62 61 60 58 56 54 53
60 61 60 60 60 60 60 59 59 60 61 61 59 58 56 59 60 60 60 61 61 61 62 63 64 63 64 64 63 63 63 63 64 64 64 63 62 60 57 55 54 51 49
59 60 59 56 58 59 59 60 60 59 59 58 59 57 56 59 59 60 60 61 61 62 62 63 64 65 64 64 64 64 63 63 64 63 63 63 63 59 55 54 52 49 48
59 59 59 58 58 59 59 59 59 59 59 59 59 59 59 60 60 60 61 61 62 63 64 64 64 64 64 64 64 63 62 62 63 63 62 60 57 54 52 49 48 46 43
58 58 58 58 58 58 58 59 59 59 59 59 60 60 61 61 60 61 61 62 63 63 64 64 65 64 64 64 63 61 61 60 60 58 56 55 53 51 49 47 45 43 40
54 55 56 56 56 56 57 57 58 57 57 57 57 57 59 59 58 58 59 60 60 61 63 64 64 65 64 63 61 61 57 56 57 56 55 52 51 49 48 46 43 40 37
49 53 54 54 53 54 54 54 54 54 54 54 54 54 54 54 56 58 58 57 57 55 56 61 62 61 62 61 50 43 44 47 47 50 50 50 48 48 45 44 42 38 36

GFSGL_sfc_30mbdewp_045.txt.gz
Dewpoint
71 71 72 72 71 70 72 68 69 70 71 69 72 72 73 73 74 72 72 73 73 72 71 70 69 69 64 62 63 60 57 58 54 56 60 61 62 62 63 61 62 64 61
72 72 72 73 73 71 70 72 68 71 70 73 74 73 74 73 73 74 73 72 71 72 72 70 70 70 67 63 65 60 59 60 56 54 62 62 60 61 61 63 62 62 63
71 72 72 72 73 73 71 70 73 69 72 71 73 73 73 73 73 73 73 72 71 72 72 71 70 70 67 65 64 64 64 60 62 58 60 62 62 64 64 63 62 62 64
70 72 72 73 72 73 73 72 70 72 71 73 71 73 73 73 73 73 73 73 72 70 73 72 70 70 69 67 64 63 64 64 62 62 59 60 63 65 63 61 62 65 63
70 71 72 73 73 73 73 73 73 71 72 72 72 72 74 72 73 72 73 73 72 72 70 73 72 71 69 68 66 64 63 63 63 60 61 60 59 63 64 63 61 62 65
66 70 71 72 73 73 73 73 74 74 72 73 72 72 72 73 72 72 72 72 73 72 72 70 72 72 70 68 68 66 65 61 60 63 59 60 60 60 63 63 62 62 61
64 66 69 71 72 73 73 73 73 74 74 72 73 72 72 72 72 71 71 72 72 73 73 72 71 71 72 70 68 67 66 66 61 59 62 60 59 61 63 62 61 60 60
64 65 66 70 71 72 72 73 73 73 74 74 73 73 73 73 72 70 70 72 72 72 72 73 72 72 71 71 70 68 67 67 66 63 60 60 63 62 64 63 62 62 63
65 68 67 70 70 71 72 72 73 73 73 73 74 74 74 74 72 71 70 71 72 72 72 73 73 72 72 70 71 69 68 67 66 65 64 62 63 66 66 66 63 61 60
66 69 71 70 71 71 72 72 73 73 73 73 73 74 74 74 73 71 70 72 71 71 71 72 71 72 72 70 71 70 69 68 67 65 64 64 66 65 66 64 64 61 60
67 67 70 71 72 72 72 73 73 73 73 73 73 73 74 74 74 72 70 72 72 71 71 70 71 70 69 69 69 71 70 70 68 66 65 64 64 66 65 66 65 63 61
65 68 68 71 70 72 73 73 74 73 73 73 73 74 74 74 74 73 70 70 73 73 72 71 71 69 68 68 67 70 69 68 69 67 65 64 64 64 64 66 66 65 65
63 68 69 70 72 70 73 73 74 74 74 74 73 73 74 74 75 73 71 69 70 72 73 73 72 70 67 65 66 67 67 68 70 69 66 66 65 65 66 65 66 66 65
67 68 72 72 73 72 72 74 74 74 74 74 74 74 73 74 74 74 72 68 67 68 70 72 72 71 70 68 65 64 64 68 70 70 69 68 68 66 65 65 64 64 64
69 72 73 73 73 73 70 69 73 74 74 74 74 74 73 73 71 67 68 71 70 69 69 70 71 72 71 71 67 66 65 66 68 70 70 70 68 66 65 65 64 64 62
72 72 73 72 73 73 70 64 56 59 60 63 65 72 63 60 59 61 64 66 66 66 67 69 70 71 71 71 71 71 67 66 67 69 69 70 69 66 65 65 65 63 62
69 72 71 71 71 72 73 71 65 57 53 54 56 57 57 55 55 58 60 61 62 64 67 68 69 70 71 71 70 69 68 68 68 68 69 69 69 68 65 65 63 63 62
66 65 68 71 69 72 71 72 67 63 63 59 55 56 55 56 56 56 58 62 65 65 66 66 66 66 67 68 67 67 67 67 68 67 65 64 64 64 63 63 62 62 61
67 67 65 65 65 65 65 66 67 66 64 60 58 57 55 57 58 59 61 62 62 62 63 63 62 62 62 63 64 65 65 65 64 63 59 60 62 61 57 61 62 61 60
64 63 64 64 64 63 63 63 62 61 61 60 60 59 60 59 58 59 60 60 60 59 59 58 59 60 63 63 63 63 63 63 63 60 58 61 62 62 62 61 61 59 58
63 62 64 65 63 62 61 61 61 61 61 60 56 54 56 59 59 59 59 60 61 61 61 62 62 63 63 63 63 62 63 63 63 63 63 63 62 61 61 60 59 58 58
62 62 61 61 61 62 61 61 60 59 59 59 57 56 55 59 60 60 60 61 61 62 62 62 63 63 64 64 64 63 63 63 63 63 63 62 62 61 61 60 57 56 55
60 59 60 59 59 59 59 59 59 59 59 60 60 60 60 61 61 60 60 61 62 63 63 64 63 63 64 64 64 64 63 63 63 63 63 62 62 61 58 56 53 51 49
58 59 59 59 59 59 59 59 58 58 58 58 57 57 58 59 59 58 58 57 61 63 64 64 64 64 64 63 63 62 62 63 64 63 63 62 61 60 55 53 51 49 46
56 56 56 56 57 56 56 55 55 55 54 54 54 54 54 54 54 53 53 53 54 53 53 58 63 64 64 63 62 62 60 57 60 60 59 57 56 53 50 47 46 44 43
48 50 53 52 52 52 52 52 52 52 52 52 51 50 50 50 50 50 49 50 51 50 49 47 45 43 55 60 56 53 52 53 55 55 53 52 51 49 47 45 43 40 38

GFSGL_sfc_30mbdewp_048.txt.gz
Dewpoint
67 69 69 68 67 72 69 66 67 69 68 69 70 71 72 72 72 71 71 72 72 71 72 70 68 68 66 64 63 62 58 57 53 53 60 60 62 62 62 63 58 56 57
68 69 70 70 69 68 71 70 68 67 69 69 70 71 72 72 72 71 71 71 72 72 71 71 70 69 68 66 62 61 60 58 55 53 55 62 60 62 61 62 59 58 59
68 69 70 71 71 70 68 70 71 68 68 70 72 71 72 72 72 72 71 71 71 72 72 71 71 70 69 68 66 62 63 61 60 56 54 62 61 62 62 62 61 61 63
69 70 69 70 72 72 71 69 70 71 68 69 71 73 73 73 72 72 72 72 72 72 72 72 71 70 70 69 67 65 63 63 62 61 59 60 62 64 62 59 60 63 61
70 70 70 71 71 72 72 71 70 70 71 69 69 71 73 73 73 72 72 72 72 71 71 72 72 71 70 69 68 66 64 63 62 62 61 59 60 62 61 61 60 60 63
69 70 70 71 71 71 72 73 72 71 69 71 71 70 71 72 72 71 72 72 72 71 71 71 71 71 71 69 68 67 66 64 62 61 61 60 59 59 63 62 61 60 59
68 69 70 71 72 72 72 72 73 72 72 70 70 71 70 71 71 71 71 71 72 72 71 71 71 70 71 71 68 67 67 65 64 61 60 60 60 59 60 62 62 61 60
64 69 70 71 71 72 72 72 72 73 73 73 71 71 72 71 70 70 70 71 71 71 72 72 71 71 71 71 71 69 68 68 65 64 61 59 59 60 61 61 61 62 62
63 64 69 70 71 72 72 72 72 73 73 73 73 73 72 72 71 70 69 71 71 72 72 72 72 72 72 70 71 71 70 69 68 66 65 64 61 60 61 61 61 61 61
63 64 65 68 70 71 72 72 73 73 73 73 73 74 74 73 72 70 69 71 71 71 72 72 71 72 72 70 70 71 70 70 69 68 66 65 64 62 62 62 62 61 61
65 65 67 66 68 70 71 72 71 72 72 72 72 73 73 74 74 71 69 72 72 72 71 71 72 70 69 69 69 71 71 71 70 69 69 67 66 66 64 65 64 63 62
66 67 69 70 68 69 70 71 71 71 72 72 72 72 73 73 73 71 70 70 73 72 72 72 72 70 68 68 67 69 70 69 71 71 69 68 67 65 66 66 66 66 66
63 66 68 70 71 71 71 71 71 72 72 72 72 72 72 74 74 72 70 70 70 72 74 73 72 71 69 67 66 67 67 69 71 71 71 70 68 67 67 66 67 67 67
69 66 68 69 70 70 72 72 72 73 72 72 72 72 73 74 74 74 71 69 68 68 70 72 72 72 71 70 68 65 64 67 69 70 70 71 71 69 68 66 65 66 65
70 72 70 70 70 71 67 67 72 73 72 73 73 74 74 73 74 74 74 72 71 70 70 70 71 71 72 72 72 69 67 66 66 68 69 70 70 70 69 67 66 65 64
68 69 71 73 72 70 65 61 54 56 60 68 73 74 66 66 66 65 64 65 67 68 68 68 69 69 70 71 71 72 69 68 67 67 68 68 69 69 69 68 66 65 64
66 67 66 69 72 72 66 65 64 57 54 55 59 63 63 60 59 61 61 61 63 64 67 67 67 68 69 70 71 71 71 69 68 67 67 67 68 68 67 67 67 65 64
66 67 66 68 70 72 72 67 62 62 62 58 56 57 57 57 56 58 60 63 63 65 65 65 65 65 66 66 67 67 67 67 67 67 64 63 63 63 62 63 62 60 60
66 66 66 66 67 69 70 69 64 63 58 57 57 57 55 56 58 59 60 62 62 62 63 63 63 62 62 62 62 62 63 63 64 64 62 59 62 58 61 57 58 61 60
66 64 65 64 64 65 65 66 66 63 60 59 59 59 58 57 57 58 59 60 59 58 58 58 58 60 60 60 60 62 62 62 62 63 61 59 60 61 59 61 61 60 60
65 63 64 63 63 63 63 62 62 61 60 57 56 58 59 58 58 58 59 59 59 59 60 60 60 61 62 62 62 62 62 62 62 62 61 62 63 62 62 61 60 59 58
65 63 64 63 62 61 61 61 61 60 58 56 55 55 56 59 59 59 59 60 60 61 62 61 61 62 62 63 63 62 62 62 62 62 63 63 62 62 61 60 59 58 57
62 61 60 60 60 59 59 59 60 60 59 59 60 60 60 58 57 58 56 56 58 62 62 62 63 62 63 63 63 63 63 62 63 63 62 62 61 61 60 58 58 58 55
60 59 59 59 59 59 58 57 57 56 56 56 55 55 55 54 52 52 53 52 52 52 51 53 52 55 62 63 63 62 62 62 63 63 63 62 61 60 58 56 55 54 52
56 57 58 57 57 56 55 54 54 53 52 52 51 51 50 50 49 49 49 50 49 47 46 45 44 41 43 46 47 48 48 50 54 63 63 62 61 61 59 54 52 51 49
50 51 53 53 52 52 51 50 50 49 48 47 46 46 46 46 46 46 46 46 46 46 45 45 45 39 36 34 33 33 35 41 51 56 60 59 58 57 56 52 50 48 46